Zurück zum Katalog

STARLINK-34656

AktivKommunikationVLEO
NORAD 65032·PAYLOAD·🇺🇸 United States

Gestartet Jul 30, 2025 von Cape Canaveral Space Force Station

Loading…

Nächste Überflüge (nächste 24 Stunden)

TLE

AktuellSource: CelesTrak SupGP

Epoche: Sep 14, 2026, 21:18 UTC

1 65032C 25161T   26257.88798611 -.00036735  00000+0 -10855-2 0  2574
2 65032  53.1573 133.7374 0001318  84.5789 157.0486 15.34404434    18

Verfolge STARLINK-34656 in Echtzeit mit AllMySat

Download on the App Store